Hourly Data Report for October 27, 2014

All times are specified in Local Standard Time (LST). Add 1 hour to adjust for Daylight Saving Time where and when it is observed.

FREDERICTON
NEW BRUNSWICK

45°52'08.000" N
66°32'14.000" W
20.70 m
8101505
71700
YFC

Download Data

Hourly Data (October 2014)
Hourly Data Report for October 27, 2014
Temp Definition
°C
Dew Point Temp Definition
°C
Rel Hum Definition
%
Wind Dir Definition
10's deg

Wind Spd Definition
km/h
Visibility Definition
km
Stn Press Definition
kPa
Hmdx Definition


Wind Chill Definition


Weather Definition


TIME
00:00 Legend Double Dagger 6.4 5.2 92 27 11 16.1 99.42     LegendNANA
01:00 Legend Double Dagger 6.0 4.5 90 28 17 16.1 99.44     LegendNANA
02:00 Legend Double Dagger 5.6 4.1 90 27 15 16.1 99.47     LegendNANA
03:00 Legend Double Dagger 4.8 3.6 92 28 17 16.1 99.49     LegendNANA
04:00 Legend Double Dagger 4.1 3.1 93 24 9 16.1 99.52     LegendNANA
05:00 Legend Double Dagger 3.6 2.9 95 25 13 16.1 99.54     LegendNANA
06:00 Legend Double Dagger 2.5 2.4 99 22 8 16.1 99.61     LegendNANA
07:00 Legend Double Dagger 4.1 3.2 94 25 11 16.1 99.67     LegendNANA
08:00 Legend Double Dagger 5.1 3.2 87 28 11 16.1 99.75     LegendNANA
09:00 Legend Double Dagger 6.0 3.6 84 28 21 16.1 99.80     LegendNANA
10:00 Legend Double Dagger 7.0 2.5 73 30 26 16.1 99.84     LegendNANA
11:00 Legend Double Dagger 7.3 2.3 71 29 30 16.1 99.87     LegendNANA
12:00 Legend Double Dagger 8.3 1.7 63 29 32 16.1 99.89     LegendNANA
13:00 Legend Double Dagger 8.9 2.2 63 30 18 16.1 99.93     LegendNANA
14:00 Legend Double Dagger 8.7 1.6 61 30 26 16.1 100.00     LegendNANA
15:00 Legend Double Dagger 9.3 1.9 60 30 26 16.1 100.06     LegendNANA
16:00 Legend Double Dagger 9.1 1.5 59 30 22 16.1 100.13     LegendNANA
17:00 Legend Double Dagger 8.3 1.6 63 30 22 16.1 100.24     LegendNANA
18:00 Legend Double Dagger 7.3 1.6 67 31 17 16.1 100.29     LegendNANA
19:00 Legend Double Dagger 6.3 1.9 74 26 13 16.1 100.40     LegendNANA
20:00 Legend Double Dagger 6.2 1.8 73 31 13 16.1 100.48     LegendNANA
21:00 Legend Double Dagger 6.7 1.9 71 29 13 16.1 100.60     LegendNANA
22:00 Legend Double Dagger 5.6 2.3 79 21 8 16.1 100.69     LegendNANA
23:00 Legend Double Dagger 6.6 2.4 75 28 8 16.1 100.77     LegendNANA

Notes on Data Quality.

Legend

  • E = Estimated
  • M = Missing
  • NA = Not Available
  • ‡ = Partner data that is not subject to review by the National Climate Archives
Date modified: